Location: Wapato
(46.4478°N, 120.4212°W)
Time: 13:34:48
(UTC+00:00)

Altair - Visible Passes

Search period start: 13 May 2026 00:00
Search period end: 23 May 2026 00:00
Orbit: 1501 x 1682 km, 47.2° (Epoch: 13 May)

Date Brightness Start Highest point End Pass type
(mag) Time Alt. Az. Time Alt. Az. Time Alt. Az.
13 May 9.2 11:34:20 10° S 11:41:26 23° SE 11:48:38 10° E visible
14 May 9.2 11:09:42 10° S 11:16:20 21° SE 11:23:05 10° E visible
15 May 9.3 10:45:08 10° SSE 10:51:15 19° SE 10:57:27 10° E visible
16 May 9.3 10:20:41 10° SSE 10:26:10 17° SE 10:31:44 10° E visible
17 May 9.3 09:56:22 10° SSE 10:01:06 15° ESE 10:05:54 10° E visible
18 May 9.3 09:32:18 10° SE 09:36:03 13° ESE 09:39:50 10° E visible
18 May 8.3 11:29:38 10° SSW 11:38:43 45° SE 11:48:04 10° ENE visible
19 May 9.3 09:08:43 10° SE 09:11:00 11° ESE 09:13:17 10° ESE visible
19 May 8.3 11:04:56 11° SSW 11:13:33 42° SE 11:22:43 10° ENE visible
20 May 8.4 10:40:56 14° SSW 10:48:24 39° SE 10:57:23 10° ENE visible
21 May 8.4 10:16:53 18° S 10:23:15 36° SE 10:32:01 10° ENE visible
22 May 8.4 09:52:47 20° S 09:58:06 33° SE 10:06:37 10° ENE visible
